Location: Banios
(43.0451°N, 0.2335°E)
Time: 10:55:00
(UTC+00:00)

Envisat - Pass Details

Date: 11 December 2021
Orbit: 764 x 766 km, 98.2° (Epoch: 20 January)

Event Time Altitude Azimuth Distance (km) Brightness Sun altitude
Rises 04:31:53 0° 19° (NNE) 3,242 6.4 -29.9°
Reaches altitude 10° 04:34:18 10° 25° (NNE) 2,311 5.7 -29.4°
Maximum altitude 04:39:12 46° 99° (E) 1,022 3.9 -28.5°
Drops below altitude 10° 04:44:03 10° 172° (S) 2,293 5.6 -27.7°
Sets 04:46:25 0° 178° (S) 3,214 6.3 -27.2°
